When you browse on this site, cookies collect data to enhance your experience and personalize the content and advertising you see.
Visit our Privacy Policy to learn more. By continuing to use the site, you agree to this use of cookies and data.
  • In Hungary
  • List of Countries
  • For 7 days
  • Water Temperature
  • Satellite Maps
  • Weather Map
  • News
  • Weather Widgets
  • user-avatar
    Login

    Hourly Weather Vina del Mar

    Today, 26 March, Tuesday

    Time Temperature Precipitation Wind Pressure Humidity
    00:00 +16°C° 0 mm 2 mps 743 mmHg 80%
    01:00 +16°C° 0 mm 2 mps 743 mmHg 81%
    02:00 +16°C° 0 mm 1 mps 742 mmHg 82%
    03:00 +16°C° 0 mm 1 mps 742 mmHg 83%
    04:00 +15°C° 0 mm 1 mps 742 mmHg 83%
    05:00 +16°C° 0 mm 1 mps 742 mmHg 78%
    06:00 +18°C° 0 mm 1 mps 742 mmHg 73%
    07:00 +19°C° 0 mm 1 mps 742 mmHg 68%
    08:00 +21°C° 0 mm 1 mps 742 mmHg 59%
    09:00 +23°C° 0 mm 2 mps 742 mmHg 51%
    10:00 +25°C° 0 mm 2 mps 742 mmHg 43%
    11:00 +26°C° 0 mm 3 mps 742 mmHg 42%
    12:00 +26°C° 0 mm 3 mps 742 mmHg 42%
    13:00 +26°C° 0 mm 3 mps 742 mmHg 42%
    14:00 +25°C° 0 mm 3 mps 742 mmHg 45%
    15:00 +24°C° 0 mm 3 mps 742 mmHg 47%
    16:00 +23°C° 0 mm 2 mps 742 mmHg 50%
    17:00 +21°C° 0 mm 2 mps 742 mmHg 57%
    18:00 +20°C° 0 mm 1 mps 742 mmHg 63%
    19:00 +16°C° 0 mm 0 mps 742 mmHg 70%
    20:00 +16°C° 0 mm 0 mps 742 mmHg 69%
    21:00 +16°C° 0 mm 0 mps 742 mmHg 69%
    22:00 +16°C° 0 mm 0 mps 742 mmHg 69%
    23:00 +16°C° 0 mm 0 mps 742 mmHg 70%

    Tomorrow, 27 March, Wednesday

    Time Temperature Precipitation Wind Pressure Humidity
    00:00 +16°C° 0 mm 0 mps 742 mmHg 70%
    01:00 +18°C° 0 mm 1 mps 742 mmHg 71%
    02:00 +18°C° 0 mm 1 mps 742 mmHg 71%
    03:00 +16°C° 0 mm 1 mps 742 mmHg 72%
    04:00 +16°C° 0 mm 1 mps 742 mmHg 72%
    05:00 +18°C° 0 mm 1 mps 742 mmHg 68%
    06:00 +19°C° 0 mm 1 mps 742 mmHg 64%
    07:00 +20°C° 0 mm 1 mps 742 mmHg 60%
    08:00 +22°C° 0 mm 1 mps 743 mmHg 54%
    09:00 +23°C° 0 mm 2 mps 743 mmHg 48%
    10:00 +25°C° 0 mm 2 mps 743 mmHg 42%
    11:00 +26°C° 0 mm 3 mps 743 mmHg 42%
    12:00 +26°C° 0 mm 3 mps 743 mmHg 43%
    13:00 +26°C° 0 mm 3 mps 743 mmHg 43%
    14:00 +25°C° 0 mm 3 mps 743 mmHg 46%
    15:00 +24°C° 0 mm 3 mps 743 mmHg 50%
    16:00 +23°C° 0 mm 2 mps 743 mmHg 53%
    17:00 +21°C° 0 mm 2 mps 743 mmHg 59%
    18:00 +20°C° 0 mm 1 mps 744 mmHg 66%
    19:00 +16°C° 0 mm 0 mps 744 mmHg 73%
    20:00 +16°C° 0 mm 0 mps 744 mmHg 73%
    21:00 +16°C° 0 mm 0 mps 744 mmHg 73%
    22:00 +16°C° 0 mm 0 mps 744 mmHg 73%
    23:00 +16°C° 0 mm 0 mps 744 mmHg 73%

    Day after tomorrow, 28 March, Thursday

    Time Temperature Precipitation Wind Pressure Humidity
    00:00 +16°C° 0 mm 0 mps 744 mmHg 74%
    01:00 +16°C° 0 mm 1 mps 744 mmHg 74%
    02:00 +15°C° 0 mm 0 mps 744 mmHg 74%
    03:00 +15°C° 0 mm 0 mps 744 mmHg 75%
    04:00 +15°C° 0 mm 0 mps 744 mmHg 75%
    05:00 +16°C° 0 mm 0 mps 744 mmHg 71%
    06:00 +19°C° 0 mm 1 mps 745 mmHg 66%
    07:00 +20°C° 0 mm 1 mps 745 mmHg 62%
    08:00 +22°C° 0 mm 1 mps 745 mmHg 55%
    09:00 +23°C° 0 mm 2 mps 746 mmHg 48%
    10:00 +25°C° 0 mm 2 mps 746 mmHg 41%
    11:00 +26°C° 0 mm 3 mps 746 mmHg 40%
    12:00 +26°C° 0 mm 3 mps 746 mmHg 39%
    13:00 +27°C° 0 mm 3 mps 745 mmHg 38%
    14:00 +26°C° 0 mm 3 mps 745 mmHg 41%
    15:00 +25°C° 0 mm 3 mps 745 mmHg 43%
    16:00 +24°C° 0 mm 3 mps 745 mmHg 45%
    17:00 +23°C° 0 mm 2 mps 745 mmHg 51%
    18:00 +20°C° 0 mm 2 mps 745 mmHg 57%
    19:00 +18°C° 0 mm 2 mps 745 mmHg 63%
    20:00 +19°C° 0 mm 1 mps 745 mmHg 63%
    21:00 +19°C° 0 mm 1 mps 745 mmHg 63%
    22:00 +18°C° 0 mm 1 mps 745 mmHg 64%
    23:00 +18°C° 0 mm 1 mps 745 mmHg 64%

    29 March, Friday

    Time Temperature Precipitation Wind Pressure Humidity
    00:00 +18°C° 0 mm 1 mps 744 mmHg 65%
    01:00 +18°C° 0 mm 1 mps 744 mmHg 65%
    02:00 +16°C° 0 mm 1 mps 744 mmHg 67%
    03:00 +16°C° 0 mm 1 mps 744 mmHg 68%
    04:00 +15°C° 0 mm 1 mps 744 mmHg 70%
    05:00 +16°C° 0 mm 1 mps 745 mmHg 68%
    06:00 +18°C° 0 mm 1 mps 745 mmHg 65%
    07:00 +19°C° 0 mm 1 mps 745 mmHg 63%
    08:00 +19°C° 0 mm 2 mps 745 mmHg 56%
    09:00 +21°C° 0 mm 2 mps 746 mmHg 48%
    10:00 +24°C° 0 mm 2 mps 746 mmHg 41%
    11:00 +25°C° 0 mm 3 mps 746 mmHg 40%
    12:00 +25°C° 0 mm 3 mps 746 mmHg 40%
    13:00 +25°C° 0 mm 3 mps 746 mmHg 39%
    14:00 +23°C° 0 mm 4 mps 746 mmHg 42%
    15:00 +23°C° 0 mm 4 mps 746 mmHg 45%
    16:00 +22°C° 0 mm 4 mps 746 mmHg 49%
    17:00 +20°C° 0 mm 4 mps 746 mmHg 55%
    18:00 +19°C° 0 mm 3 mps 746 mmHg 61%
    19:00 +17°C° 0 mm 3 mps 746 mmHg 67%
    20:00 +17°C° 0 mm 3 mps 746 mmHg 66%
    21:00 +17°C° 0 mm 3 mps 746 mmHg 64%
    22:00 +17°C° 0 mm 3 mps 746 mmHg 62%
    23:00 +17°C° 0 mm 3 mps 745 mmHg 61%

    30 March, Saturday

    Time Temperature Precipitation Wind Pressure Humidity
    00:00 +17°C° 0 mm 3 mps 745 mmHg 60%
    01:00 +17°C° 0 mm 3 mps 744 mmHg 58%
    02:00 +17°C° 0 mm 3 mps 744 mmHg 58%
    03:00 +17°C° 0 mm 3 mps 744 mmHg 57%
    04:00 +17°C° 0 mm 3 mps 743 mmHg 56%
    05:00 +18°C° 0 mm 3 mps 743 mmHg 53%
    06:00 +19°C° 0 mm 3 mps 744 mmHg 50%
    07:00 +19°C° 0 mm 3 mps 744 mmHg 46%
    08:00 +22°C° 0 mm 3 mps 744 mmHg 40%
    09:00 +25°C° 0 mm 3 mps 744 mmHg 34%
    10:00 +28°C° 0 mm 3 mps 744 mmHg 27%
    11:00 +29°C° 0 mm 4 mps 743 mmHg 26%
    12:00 +29°C° 0 mm 4 mps 743 mmHg 25%
    13:00 +30°C° 0 mm 5 mps 743 mmHg 25%
    14:00 +29°C° 0 mm 5 mps 743 mmHg 27%
    15:00 +28°C° 0 mm 5 mps 743 mmHg 29%
    16:00 +27°C° 0 mm 4 mps 743 mmHg 32%
    17:00 +25°C° 0 mm 4 mps 743 mmHg 39%
    18:00 +22°C° 0 mm 3 mps 743 mmHg 45%
    19:00 +19°C° 0 mm 2 mps 743 mmHg 52%
    20:00 +19°C° 0 mm 2 mps 743 mmHg 54%
    21:00 +19°C° 0 mm 3 mps 743 mmHg 57%
    22:00 +18°C° 0 mm 3 mps 743 mmHg 59%
    23:00 +18°C° 0 mm 3 mps 743 mmHg 62%

    31 March, Sunday

    Time Temperature Precipitation Wind Pressure Humidity
    00:00 +17°C° 0 mm 3 mps 743 mmHg 64%
    01:00 +17°C° 0 mm 3 mps 743 mmHg 67%
    02:00 +16°C° 0 mm 3 mps 743 mmHg 69%
    03:00 +16°C° 0 mm 2 mps 743 mmHg 71%
    04:00 +16°C° 0 mm 2 mps 743 mmHg 74%
    05:00 +16°C° 0 mm 2 mps 743 mmHg 70%
    06:00 +17°C° 0 mm 2 mps 744 mmHg 67%
    07:00 +18°C° 0 mm 2 mps 744 mmHg 63%
    08:00 +20°C° 0 mm 2 mps 744 mmHg 56%
    09:00 +22°C° 0 mm 3 mps 744 mmHg 49%
    10:00 +25°C° 0 mm 3 mps 745 mmHg 42%
    11:00 +26°C° 0 mm 3 mps 744 mmHg 41%
    12:00 +26°C° 0 mm 4 mps 744 mmHg 41%
    13:00 +27°C° 0 mm 4 mps 744 mmHg 40%
    14:00 +26°C° 0 mm 4 mps 744 mmHg 44%
    15:00 +25°C° 0 mm 4 mps 744 mmHg 48%
    16:00 +23°C° 0 mm 4 mps 744 mmHg 52%
    17:00 +21°C° 0 mm 3 mps 744 mmHg 59%
    18:00 +19°C° 0 mm 3 mps 744 mmHg 66%
    19:00 +17°C° 0 mm 2 mps 745 mmHg 73%
    20:00 +17°C° 0 mm 2 mps 745 mmHg 73%
    21:00 +17°C° 0 mm 2 mps 745 mmHg 73%
    22:00 +17°C° 0 mm 2 mps 745 mmHg 72%
    23:00 +17°C° 0 mm 2 mps 745 mmHg 71%
    Show more